sat.trackr.live / text

‹ back to catalog

STARLINK-34831

NORAD 65345 · 2025-189Y

PAYLOAD ACTIVE UNKNOWN

§ Identity

Operator
Country
US
Launch date
2025-08-27
Launch site
AFETR
Launch vehicle
Mass (kg)
RCS (m²)

Purposes: comms

External: N2YO · Heavens-Above · Gunter

§ Orbital elements

Epoch: 2026-09-20T13:45:06.202080Z

Period
94.01 min
Inclination
53.1581°
Eccentricity
0.0001553
Mean motion
15.31707780 rev/d
Perigee alt
469.7 km
Apogee alt
471.8 km
Semi-major
6,848.9 km
B*
1.3525e-4
RAAN
20.1553°
Arg perigee
90.0173°
Mean anomaly
270.1006°
Rev number
6,097

§ Raw data

STARLINK-348311 65345U 25189Y   26263.57298845  .00003835  00000+0  13525-3 0  99922 65345  53.1581  20.1553 0001553  90.0173 270.1006 15.31707780 60975

JSON: /api/v1/satellites/65345 · /tle

For live sub-satellite position, see the globe view (requires WebGL).

§ Visibility from observer

Set your observer location to see the next 7 days of passes ≥ 10°. The values pass through the URL so the page stays shareable.

No JS? Fill the form by hand. The geolocation button needs JavaScript.